Location: Newark
(7.1028°S, 35.3258°W)
Time: 01:14:43
(UTC+00:00)

Vanguard 3 - Pass Details

Date: 01 March 2020
Orbit: 508 x 3262 km, 33.3° (Epoch: 28 March)

Event Time Altitude Azimuth Distance (km) Brightness Sun altitude
Rises 21:59:53 0° 258° (WSW) 6,885 13.5 -20.3°
Reaches altitude 10° 22:05:30 10° 247° (WSW) 6,080 12.7 -21.7°
Maximum altitude 22:21:34 29° 193° (SSW) 4,669 11.1 -25.6°
Drops below altitude 10° 22:35:55 10° 138° (SE) 5,411 11.0 -29.1°
Enters shadow 22:38:05 - 132° (SE) 5,691 11.1 -29.6°
